Time,TemperatureF,DewpointF,PressureIn,WindDirection,WindDirectionDegrees,WindSpeedMPH,WindSpeedGustMPH,Humidity,HourlyPrecipIn,Conditions,Clouds,dailyrainin,SoftwareType,DateUTC
2013-05-17 00:05:00,57.3,41.3,29.97,East,96,6.0,10.0,55,0.00,,,0.00,Wunderground v.1.15,2013-05-17 05:05:00,
2013-05-17 00:11:00,57.2,41.2,29.97,East,84,6.0,6.0,55,0.00,,,0.00,Wunderground v.1.15,2013-05-17 05:11:00,
2013-05-17 00:17:00,57.1,41.1,29.97,ESE,106,8.0,13.0,55,0.00,,,0.00,Wunderground v.1.15,2013-05-17 05:17:00,
2013-05-17 00:23:00,57.0,41.4,29.96,ESE,117,8.0,8.0,56,0.00,,,0.00,Wunderground v.1.15,2013-05-17 05:23:00,
2013-05-17 00:28:00,56.8,41.3,29.96,East,99,7.0,9.0,56,0.00,,,0.00,Wunderground v.1.15,2013-05-17 05:28:00,
2013-05-17 00:34:00,56.6,41.5,29.96,East,93,8.0,10.0,57,0.00,,,0.00,Wunderground v.1.15,2013-05-17 05:34:00,
2013-05-17 00:40:00,56.4,40.9,29.96,ESE,107,8.0,11.0,56,0.00,,,0.00,Wunderground v.1.15,2013-05-17 05:40:00,
2013-05-17 00:46:00,56.3,40.8,29.96,East,96,7.0,9.0,56,0.00,,,0.00,Wunderground v.1.15,2013-05-17 05:46:00,
2013-05-17 00:52:00,56.1,40.1,29.96,ESE,117,6.0,6.0,55,0.00,,,0.00,Wunderground v.1.15,2013-05-17 05:52:00,
2013-05-17 00:57:00,56.0,40.1,29.96,ESE,105,5.0,11.0,55,0.00,,,0.00,Wunderground v.1.15,2013-05-17 05:57:00,
2013-05-17 01:03:00,55.9,40.4,29.96,ESE,112,6.0,6.0,56,0.00,,,0.00,Wunderground v.1.15,2013-05-17 06:03:00,
2013-05-17 01:09:00,55.8,40.3,29.96,East,89,6.0,10.0,56,0.00,,,0.00,Wunderground v.1.15,2013-05-17 06:09:00,
2013-05-17 01:15:00,55.6,40.1,29.95,East,86,6.0,8.0,56,0.00,,,0.00,Wunderground v.1.15,2013-05-17 06:15:00,
2013-05-17 01:21:00,55.4,40.0,29.95,East,94,6.0,7.0,56,0.00,,,0.00,Wunderground v.1.15,2013-05-17 06:21:00,
2013-05-17 01:27:00,55.1,39.7,29.95,ESE,115,6.0,10.0,56,0.00,,,0.00,Wunderground v.1.15,2013-05-17 06:27:00,
2013-05-17 01:33:00,54.9,39.0,29.95,East,79,7.0,10.0,55,0.00,,,0.00,Wunderground v.1.15,2013-05-17 06:33:00,
2013-05-17 01:39:00,54.7,39.3,29.96,East,93,7.0,10.0,56,0.00,,,0.00,Wunderground v.1.15,2013-05-17 06:39:00,
2013-05-17 01:45:00,54.5,39.1,29.96,East,86,8.0,11.0,56,0.00,,,0.00,Wunderground v.1.15,2013-05-17 06:45:00,
2013-05-17 01:51:00,54.2,38.8,29.95,East,94,8.0,9.0,56,0.00,,,0.00,Wunderground v.1.15,2013-05-17 06:51:00,
2013-05-17 01:56:00,54.1,38.7,29.95,ESE,107,8.0,12.0,56,0.00,,,0.00,Wunderground v.1.15,2013-05-17 06:56:00,
2013-05-17 02:01:00,53.9,38.1,29.95,East,100,8.0,10.0,55,0.00,,,0.00,Wunderground v.1.15,2013-05-17 07:01:00,
2013-05-17 02:07:00,53.8,38.5,29.96,SE,130,8.0,10.0,56,0.00,,,0.00,Wunderground v.1.15,2013-05-17 07:07:00,
2013-05-17 02:12:00,53.7,38.4,29.96,ESE,107,6.0,7.0,56,0.00,,,0.00,Wunderground v.1.15,2013-05-17 07:12:00,
2013-05-17 02:18:00,53.4,38.5,29.95,East,96,5.0,7.0,57,0.00,,,0.00,Wunderground v.1.15,2013-05-17 07:18:00,
2013-05-17 02:24:00,53.2,38.8,29.95,ESE,111,6.0,9.0,58,0.00,,,0.00,Wunderground v.1.15,2013-05-17 07:24:00,
2013-05-17 02:30:00,53.1,38.7,29.95,ESE,103,7.0,10.0,58,0.00,,,0.00,Wunderground v.1.15,2013-05-17 07:30:00,
2013-05-17 02:36:00,53.0,38.6,29.95,ENE,76,7.0,8.0,58,0.00,,,0.00,Wunderground v.1.15,2013-05-17 07:36:00,
2013-05-17 02:42:00,52.8,38.4,29.95,East,88,8.0,11.0,58,0.00,,,0.00,Wunderground v.1.15,2013-05-17 07:42:00,
2013-05-17 02:48:00,52.8,38.4,29.95,ESE,105,8.0,11.0,58,0.00,,,0.00,Wunderground v.1.15,2013-05-17 07:48:00,
2013-05-17 02:54:00,52.7,38.3,29.96,East,92,8.0,9.0,58,0.00,,,0.00,Wunderground v.1.15,2013-05-17 07:54:00,
2013-05-17 03:00:00,52.6,38.7,29.96,East,94,8.0,9.0,59,0.00,,,0.00,Wunderground v.1.15,2013-05-17 08:00:00,
2013-05-17 03:05:00,52.5,38.6,29.96,ESE,103,8.0,9.0,59,0.00,,,0.00,Wunderground v.1.15,2013-05-17 08:05:00,
2013-05-17 03:11:00,52.4,38.5,29.96,East,88,8.0,8.0,59,0.00,,,0.00,Wunderground v.1.15,2013-05-17 08:11:00,
2013-05-17 03:16:00,52.3,38.8,29.96,ENE,78,8.0,10.0,60,0.00,,,0.00,Wunderground v.1.15,2013-05-17 08:16:00,
2013-05-17 03:22:00,52.3,38.8,29.97,ESE,111,9.0,9.0,60,0.00,,,0.00,Wunderground v.1.15,2013-05-17 08:22:00,
2013-05-17 03:28:00,52.2,39.1,29.97,ESE,117,7.0,9.0,61,0.00,,,0.00,Wunderground v.1.15,2013-05-17 08:28:00,
2013-05-17 03:33:00,52.1,38.6,29.98,ESE,104,6.0,7.0,60,0.00,,,0.00,Wunderground v.1.15,2013-05-17 08:33:00,
2013-05-17 03:39:00,52.1,38.6,29.98,ESE,111,6.0,9.0,60,0.00,,,0.00,Wunderground v.1.15,2013-05-17 08:39:00,
2013-05-17 03:44:00,52.1,39.1,29.99,ESE,105,5.0,8.0,61,0.00,,,0.00,Wunderground v.1.15,2013-05-17 08:44:00,
2013-05-17 03:50:00,52.0,39.4,29.99,ESE,107,4.0,8.0,62,0.00,,,0.00,Wunderground v.1.15,2013-05-17 08:50:00,
2013-05-17 03:55:00,51.9,39.7,30.00,East,88,4.0,4.0,63,0.00,,,0.00,Wunderground v.1.15,2013-05-17 08:55:00,
2013-05-17 04:01:00,51.7,40.3,30.00,ESE,111,2.0,2.0,65,0.00,,,0.00,Wunderground v.1.15,2013-05-17 09:01:00,
2013-05-17 04:07:00,51.5,40.1,30.00,East,80,2.0,5.0,65,0.00,,,0.00,Wunderground v.1.15,2013-05-17 09:07:00,
2013-05-17 04:12:00,51.3,40.3,30.00,NE,50,4.0,4.0,66,0.00,,,0.00,Wunderground v.1.15,2013-05-17 09:12:00,
2013-05-17 04:18:00,51.1,40.5,29.99,East,97,5.0,7.0,67,0.00,,,0.00,Wunderground v.1.15,2013-05-17 09:18:00,
2013-05-17 04:23:00,51.0,40.4,29.99,East,86,7.0,8.0,67,0.00,,,0.00,Wunderground v.1.15,2013-05-17 09:23:00,
2013-05-17 04:29:00,50.9,40.3,29.99,ENE,73,7.0,8.0,67,0.00,,,0.00,Wunderground v.1.15,2013-05-17 09:29:00,
2013-05-17 04:35:00,50.9,39.9,29.99,NE,46,7.0,9.0,66,0.00,,,0.00,Wunderground v.1.15,2013-05-17 09:35:00,
2013-05-17 04:41:00,50.9,40.3,29.99,ENE,75,8.0,9.0,67,0.00,,,0.00,Wunderground v.1.15,2013-05-17 09:41:00,
2013-05-17 04:46:00,50.9,40.3,30.00,ESE,115,7.0,9.0,67,0.00,,,0.00,Wunderground v.1.15,2013-05-17 09:46:00,
2013-05-17 04:52:00,50.9,40.7,30.00,SE,130,4.0,5.0,68,0.00,,,0.00,Wunderground v.1.15,2013-05-17 09:52:00,
2013-05-17 04:57:00,50.7,40.5,30.00,ESE,107,3.0,5.0,68,0.00,,,0.00,Wunderground v.1.15,2013-05-17 09:57:00,
2013-05-17 05:03:00,50.4,41.0,30.00,ESE,113,4.0,6.0,70,0.00,,,0.00,Wunderground v.1.15,2013-05-17 10:03:00,
2013-05-17 05:09:00,50.1,40.7,30.00,ESE,109,5.0,7.0,70,0.00,,,0.00,Wunderground v.1.15,2013-05-17 10:09:00,
2013-05-17 05:15:00,50.0,41.0,30.01,ESE,109,5.0,7.0,71,0.00,,,0.00,Wunderground v.1.15,2013-05-17 10:15:00,
2013-05-17 05:20:00,49.8,40.8,30.01,SE,127,4.0,7.0,71,0.00,,,0.00,Wunderground v.1.15,2013-05-17 10:20:00,
2013-05-17 05:26:00,49.7,41.0,30.01,East,98,4.0,5.0,72,0.00,,,0.00,Wunderground v.1.15,2013-05-17 10:26:00,
2013-05-17 05:31:00,49.6,40.9,30.01,ESE,115,4.0,4.0,72,0.00,,,0.00,Wunderground v.1.15,2013-05-17 10:31:00,
2013-05-17 05:37:00,49.5,41.2,30.01,ESE,111,4.0,5.0,73,0.00,,,0.00,Wunderground v.1.15,2013-05-17 10:37:00,
2013-05-17 05:43:00,49.3,41.0,30.02,ESE,111,3.0,3.0,73,0.00,,,0.01,Wunderground v.1.15,2013-05-17 10:43:00,
2013-05-17 05:49:00,49.1,41.2,30.02,ESE,107,3.0,4.0,74,0.00,,,0.01,Wunderground v.1.15,2013-05-17 10:49:00,
2013-05-17 05:54:00,49.0,41.8,30.02,ESE,105,3.0,5.0,76,0.00,,,0.01,Wunderground v.1.15,2013-05-17 10:54:00,
2013-05-17 06:00:00,48.8,41.9,30.02,SE,127,2.0,5.0,77,0.00,,,0.01,Wunderground v.1.15,2013-05-17 11:00:00,
2013-05-17 06:06:00,48.7,41.8,30.03,ESE,111,2.0,3.0,77,0.00,,,0.01,Wunderground v.1.15,2013-05-17 11:06:00,
2013-05-17 06:12:00,48.5,42.0,30.03,East,98,2.0,3.0,78,0.00,,,0.01,Wunderground v.1.15,2013-05-17 11:12:00,
2013-05-17 06:18:00,48.5,42.6,30.03,ESE,112,2.0,4.0,80,0.00,,,0.01,Wunderground v.1.15,2013-05-17 11:18:00,
2013-05-17 06:23:00,48.3,42.4,30.03,ESE,114,3.0,4.0,80,0.00,,,0.01,Wunderground v.1.15,2013-05-17 11:23:00,
2013-05-17 06:29:00,48.3,42.7,30.03,ESE,114,4.0,7.0,81,0.00,,,0.01,Wunderground v.1.15,2013-05-17 11:29:00,
2013-05-17 06:34:00,48.2,42.3,30.04,ESE,105,4.0,5.0,80,0.00,,,0.01,Wunderground v.1.15,2013-05-17 11:34:00,
2013-05-17 06:40:00,48.2,42.3,30.04,ENE,71,5.0,7.0,80,0.00,,,0.01,Wunderground v.1.15,2013-05-17 11:40:00,
2013-05-17 06:46:00,48.3,42.1,30.04,ESE,116,7.0,13.0,79,0.00,,,0.01,Wunderground v.1.15,2013-05-17 11:46:00,
2013-05-17 06:52:00,48.4,42.5,30.04,ENE,78,7.0,10.0,80,0.00,,,0.01,Wunderground v.1.15,2013-05-17 11:52:00,
2013-05-17 06:57:00,48.4,42.5,30.04,ESE,111,6.0,10.0,80,0.00,,,0.01,Wunderground v.1.15,2013-05-17 11:57:00,
2013-05-17 07:03:00,48.5,42.6,30.04,SE,128,5.0,8.0,80,0.00,,,0.01,Wunderground v.1.15,2013-05-17 12:03:00,
2013-05-17 07:08:00,48.5,42.6,30.05,ESE,106,5.0,8.0,80,0.00,,,0.01,Wunderground v.1.15,2013-05-17 12:08:00,
2013-05-17 07:14:00,48.7,42.8,30.05,East,96,4.0,9.0,80,0.00,,,0.01,Wunderground v.1.15,2013-05-17 12:14:00,
2013-05-17 07:20:00,48.8,42.9,30.05,ESE,107,6.0,9.0,80,0.00,,,0.01,Wunderground v.1.15,2013-05-17 12:20:00,
2013-05-17 07:26:00,49.0,42.8,30.05,ESE,111,7.0,8.0,79,0.00,,,0.01,Wunderground v.1.15,2013-05-17 12:26:00,
2013-05-17 07:32:00,49.1,42.9,30.05,ESE,109,7.0,8.0,79,0.00,,,0.01,Wunderground v.1.15,2013-05-17 12:32:00,
2013-05-17 07:37:00,49.3,43.1,30.05,ESE,107,7.0,8.0,79,0.00,,,0.01,Wunderground v.1.15,2013-05-17 12:37:00,
2013-05-17 07:43:00,49.4,43.2,30.05,ESE,117,7.0,7.0,79,0.00,,,0.01,Wunderground v.1.15,2013-05-17 12:43:00,
2013-05-17 07:48:00,49.6,43.0,30.05,East,93,7.0,10.0,78,0.00,,,0.01,Wunderground v.1.15,2013-05-17 12:48:00,
2013-05-17 07:54:00,49.7,43.1,30.04,ESE,107,9.0,10.0,78,0.00,,,0.01,Wunderground v.1.15,2013-05-17 12:54:00,
2013-05-17 08:00:00,49.9,43.3,30.04,ESE,113,8.0,10.0,78,0.00,,,0.01,Wunderground v.1.15,2013-05-17 13:00:00,
2013-05-17 08:06:00,50.1,43.2,30.04,ESE,115,7.0,10.0,77,0.00,,,0.01,Wunderground v.1.15,2013-05-17 13:06:00,
2013-05-17 08:11:00,50.2,43.3,30.04,ESE,112,8.0,8.0,77,0.00,,,0.01,Wunderground v.1.15,2013-05-17 13:11:00,
2013-05-17 08:17:00,50.4,43.5,30.03,East,93,7.0,11.0,77,0.00,,,0.01,Wunderground v.1.15,2013-05-17 13:17:00,
2013-05-17 08:23:00,50.5,43.2,30.03,ESE,106,8.0,11.0,76,0.00,,,0.01,Wunderground v.1.15,2013-05-17 13:23:00,
2013-05-17 08:28:00,50.5,43.2,30.04,East,85,10.0,15.0,76,0.00,,,0.01,Wunderground v.1.15,2013-05-17 13:28:00,
2013-05-17 08:34:00,50.7,43.4,30.04,ESE,107,9.0,14.0,76,0.00,,,0.01,Wunderground v.1.15,2013-05-17 13:34:00,
2013-05-17 08:40:00,50.8,43.2,30.03,East,90,7.0,14.0,75,0.00,,,0.01,Wunderground v.1.15,2013-05-17 13:40:00,
2013-05-17 08:46:00,50.9,42.9,30.03,East,92,7.0,8.0,74,0.00,,,0.01,Wunderground v.1.15,2013-05-17 13:46:00,
2013-05-17 08:52:00,51.0,43.0,30.03,East,91,8.0,9.0,74,0.00,,,0.01,Wunderground v.1.15,2013-05-17 13:52:00,
2013-05-17 08:58:00,51.2,42.8,30.03,East,98,9.0,13.0,73,0.00,,,0.01,Wunderground v.1.15,2013-05-17 13:58:00,
2013-05-17 09:04:00,51.4,43.0,30.03,East,88,7.0,9.0,73,0.00,,,0.01,Wunderground v.1.15,2013-05-17 14:04:00,
2013-05-17 09:09:00,51.5,43.1,30.03,SE,138,7.0,11.0,73,0.00,,,0.01,Wunderground v.1.15,2013-05-17 14:09:00,
2013-05-17 09:15:00,51.6,42.9,30.03,ESE,110,9.0,13.0,72,0.00,,,0.01,Wunderground v.1.15,2013-05-17 14:15:00,
2013-05-17 09:21:00,51.7,43.3,30.03,ESE,107,8.0,8.0,73,0.00,,,0.01,Wunderground v.1.15,2013-05-17 14:21:00,
2013-05-17 09:26:00,51.9,43.2,30.04,East,83,8.0,11.0,72,0.00,,,0.01,Wunderground v.1.15,2013-05-17 14:26:00,
2013-05-17 09:32:00,52.1,43.0,30.04,SE,133,8.0,12.0,71,0.00,,,0.01,Wunderground v.1.15,2013-05-17 14:32:00,
2013-05-17 09:38:00,52.3,42.8,30.03,ESE,105,9.0,13.0,70,0.00,,,0.01,Wunderground v.1.15,2013-05-17 14:38:00,
2013-05-17 09:44:00,52.4,43.3,30.04,ESE,117,9.0,10.0,71,0.00,,,0.01,Wunderground v.1.15,2013-05-17 14:44:00,
2013-05-17 09:49:00,52.6,43.5,30.03,ESE,116,9.0,12.0,71,0.00,,,0.01,Wunderground v.1.15,2013-05-17 14:49:00,
2013-05-17 09:55:00,52.9,43.4,30.03,ENE,74,9.0,11.0,70,0.00,,,0.01,Wunderground v.1.15,2013-05-17 14:55:00,
2013-05-17 10:01:00,53.2,43.7,30.03,SE,131,10.0,10.0,70,0.00,,,0.01,Wunderground v.1.15,2013-05-17 15:01:00,
2013-05-17 10:07:00,53.3,43.8,30.03,ESE,109,10.0,16.0,70,0.00,,,0.01,Wunderground v.1.15,2013-05-17 15:07:00,
2013-05-17 10:12:00,53.5,44.0,30.03,ESE,105,10.0,14.0,70,0.00,,,0.01,Wunderground v.1.15,2013-05-17 15:12:00,
2013-05-17 10:18:00,53.9,44.3,30.03,East,98,9.0,14.0,70,0.00,,,0.01,Wunderground v.1.15,2013-05-17 15:18:00,
2013-05-17 10:23:00,54.4,44.1,30.03,SE,126,8.0,16.0,68,0.00,,,0.01,Wunderground v.1.15,2013-05-17 15:23:00,
2013-05-17 10:29:00,54.5,43.8,30.03,ESE,122,10.0,16.0,67,0.00,,,0.01,Wunderground v.1.15,2013-05-17 15:29:00,
2013-05-17 10:35:00,54.8,44.4,30.03,East,94,8.0,9.0,68,0.00,,,0.01,Wunderground v.1.15,2013-05-17 15:35:00,
2013-05-17 10:40:00,55.1,44.3,30.03,ESE,104,7.0,11.0,67,0.00,,,0.01,Wunderground v.1.15,2013-05-17 15:40:00,
2013-05-17 10:46:00,55.3,44.5,30.02,East,97,9.0,13.0,67,0.00,,,0.01,Wunderground v.1.15,2013-05-17 15:46:00,
2013-05-17 10:52:00,55.9,44.7,30.03,SE,134,9.0,10.0,66,0.00,,,0.01,Wunderground v.1.15,2013-05-17 15:52:00,
2013-05-17 10:58:00,56.0,44.0,30.03,ESE,110,9.0,10.0,64,0.00,,,0.01,Wunderground v.1.15,2013-05-17 15:58:00,
2013-05-17 11:03:00,56.0,44.4,30.03,ESE,103,10.0,11.0,65,0.00,,,0.01,Wunderground v.1.15,2013-05-17 16:03:00,
2013-05-17 11:09:00,56.1,44.5,30.04,ESE,103,10.0,13.0,65,0.00,,,0.01,Wunderground v.1.15,2013-05-17 16:09:00,
2013-05-17 11:15:00,56.1,44.1,30.04,ESE,111,8.0,11.0,64,0.00,,,0.01,Wunderground v.1.15,2013-05-17 16:15:00,
2013-05-17 11:20:00,56.3,44.7,30.04,East,96,8.0,11.0,65,0.00,,,0.01,Wunderground v.1.15,2013-05-17 16:20:00,
2013-05-17 11:26:00,56.5,44.5,30.05,ENE,62,9.0,14.0,64,0.00,,,0.01,Wunderground v.1.15,2013-05-17 16:26:00,
2013-05-17 11:31:00,56.4,44.8,30.05,ESE,115,10.0,11.0,65,0.00,,,0.01,Wunderground v.1.15,2013-05-17 16:31:00,
2013-05-17 11:37:00,56.2,44.6,30.05,ESE,111,12.0,13.0,65,0.00,,,0.01,Wunderground v.1.15,2013-05-17 16:37:00,
2013-05-17 11:43:00,57.0,45.7,30.05,SE,124,11.0,11.0,66,0.00,,,0.01,Wunderground v.1.15,2013-05-17 16:43:00,
2013-05-17 11:48:00,58.1,46.4,30.04,ENE,67,10.0,12.0,65,0.00,,,0.01,Wunderground v.1.15,2013-05-17 16:48:00,
2013-05-17 11:54:00,59.0,46.8,30.05,East,93,7.0,8.0,64,0.00,,,0.01,Wunderground v.1.15,2013-05-17 16:54:00,
2013-05-17 12:00:00,58.9,46.7,30.05,East,90,6.0,8.0,64,0.00,,,0.01,Wunderground v.1.15,2013-05-17 17:00:00,
2013-05-17 12:05:00,58.9,45.9,30.05,SSE,158,6.0,9.0,62,0.00,,,0.01,Wunderground v.1.15,2013-05-17 17:05:00,
2013-05-17 12:11:00,58.5,45.5,30.05,East,95,8.0,8.0,62,0.00,,,0.01,Wunderground v.1.15,2013-05-17 17:11:00,
2013-05-17 12:17:00,58.4,45.8,30.05,SSE,163,7.0,11.0,63,0.00,,,0.01,Wunderground v.1.15,2013-05-17 17:17:00,
2013-05-17 12:23:00,58.4,45.4,30.05,ESE,113,8.0,8.0,62,0.00,,,0.01,Wunderground v.1.15,2013-05-17 17:23:00,
2013-05-17 12:29:00,57.8,45.7,30.05,ESE,120,9.0,11.0,64,0.00,,,0.01,Wunderground v.1.15,2013-05-17 17:29:00,
2013-05-17 12:34:00,57.8,46.1,30.05,ESE,103,8.0,13.0,65,0.00,,,0.01,Wunderground v.1.15,2013-05-17 17:34:00,
2013-05-17 12:40:00,57.6,45.9,30.05,SE,131,9.0,13.0,65,0.00,,,0.01,Wunderground v.1.15,2013-05-17 17:40:00,
2013-05-17 12:46:00,57.5,46.2,30.05,ESE,106,10.0,11.0,66,0.00,,,0.01,Wunderground v.1.15,2013-05-17 17:46:00,
2013-05-17 12:51:00,57.3,45.6,30.05,SE,142,10.0,10.0,65,0.00,,,0.01,Wunderground v.1.15,2013-05-17 17:51:00,
2013-05-17 12:57:00,57.5,46.2,30.05,ESE,119,10.0,11.0,66,0.00,,,0.01,Wunderground v.1.15,2013-05-17 17:57:00,
2013-05-17 13:03:00,57.6,46.7,30.05,SE,132,10.0,11.0,67,0.00,,,0.01,Wunderground v.1.15,2013-05-17 18:03:00,
2013-05-17 13:08:00,57.5,46.2,30.04,ESE,119,10.0,17.0,66,0.00,,,0.01,Wunderground v.1.15,2013-05-17 18:08:00,
2013-05-17 13:14:00,57.2,46.7,30.05,SE,133,10.0,12.0,68,0.00,,,0.01,Wunderground v.1.15,2013-05-17 18:14:00,
2013-05-17 13:19:00,57.2,46.7,30.04,SE,126,9.0,14.0,68,0.00,,,0.01,Wunderground v.1.15,2013-05-17 18:19:00,
2013-05-17 13:25:00,57.6,47.1,30.03,NE,55,10.0,15.0,68,0.00,,,0.01,Wunderground v.1.15,2013-05-17 18:25:00,
2013-05-17 13:30:00,57.8,47.3,30.03,ESE,119,11.0,15.0,68,0.00,,,0.01,Wunderground v.1.15,2013-05-17 18:30:00,
2013-05-17 13:36:00,58.4,47.1,30.03,SE,124,10.0,11.0,66,0.00,,,0.01,Wunderground v.1.15,2013-05-17 18:36:00,
2013-05-17 13:42:00,58.4,47.1,30.03,ESE,113,9.0,10.0,66,0.00,,,0.01,Wunderground v.1.15,2013-05-17 18:42:00,
2013-05-17 13:47:00,58.6,47.7,30.03,ESE,115,8.0,12.0,67,0.00,,,0.01,Wunderground v.1.15,2013-05-17 18:47:00,
2013-05-17 13:53:00,59.1,47.7,30.03,SE,142,8.0,11.0,66,0.00,,,0.01,Wunderground v.1.15,2013-05-17 18:53:00,
2013-05-17 13:59:00,59.3,48.3,30.03,ESE,119,8.0,11.0,67,0.00,,,0.01,Wunderground v.1.15,2013-05-17 18:59:00,
2013-05-17 14:05:00,59.8,48.8,30.02,SE,139,8.0,10.0,67,0.00,,,0.01,Wunderground v.1.15,2013-05-17 19:05:00,
2013-05-17 14:10:00,60.4,49.0,30.02,SSE,161,9.0,12.0,66,0.00,,,0.01,Wunderground v.1.15,2013-05-17 19:10:00,
2013-05-17 14:16:00,60.6,48.8,30.03,ESE,120,8.0,12.0,65,0.00,,,0.01,Wunderground v.1.15,2013-05-17 19:16:00,
2013-05-17 14:21:00,60.8,49.0,30.02,ESE,106,9.0,10.0,65,0.00,,,0.01,Wunderground v.1.15,2013-05-17 19:21:00,
2013-05-17 14:27:00,61.0,50.0,30.02,SE,128,9.0,15.0,67,0.00,,,0.01,Wunderground v.1.15,2013-05-17 19:27:00,
2013-05-17 14:33:00,60.6,48.4,30.03,South,173,8.0,11.0,64,0.00,,,0.01,Wunderground v.1.15,2013-05-17 19:33:00,
2013-05-17 14:39:00,60.5,48.7,30.03,SE,129,8.0,11.0,65,0.00,,,0.01,Wunderground v.1.15,2013-05-17 19:39:00,
2013-05-17 14:44:00,60.3,48.9,30.03,ESE,113,9.0,15.0,66,0.00,,,0.01,Wunderground v.1.15,2013-05-17 19:44:00,
2013-05-17 14:50:00,60.1,48.7,30.03,ESE,116,10.0,15.0,66,0.00,,,0.01,Wunderground v.1.15,2013-05-17 19:50:00,
2013-05-17 14:56:00,59.9,48.5,30.03,ESE,123,9.0,12.0,66,0.00,,,0.01,Wunderground v.1.15,2013-05-17 19:56:00,
2013-05-17 15:01:00,59.5,48.9,30.03,SE,141,8.0,8.0,68,0.00,,,0.01,Wunderground v.1.15,2013-05-17 20:01:00,
2013-05-17 15:06:00,59.6,49.0,30.03,SE,134,6.0,8.0,68,0.00,,,0.01,Wunderground v.1.15,2013-05-17 20:06:00,
2013-05-17 15:12:00,59.5,49.3,30.03,ESE,118,5.0,10.0,69,0.00,,,0.01,Wunderground v.1.15,2013-05-17 20:12:00,
2013-05-17 15:18:00,59.5,49.7,30.03,SE,126,6.0,10.0,70,0.00,,,0.01,Wunderground v.1.15,2013-05-17 20:18:00,
2013-05-17 15:23:00,59.2,49.0,30.03,ESE,117,7.0,9.0,69,0.00,,,0.01,Wunderground v.1.15,2013-05-17 20:23:00,
2013-05-17 15:29:00,58.7,48.9,30.04,SE,139,8.0,10.0,70,0.00,,,0.01,Wunderground v.1.15,2013-05-17 20:29:00,
2013-05-17 15:35:00,58.2,48.8,30.04,ESE,115,8.0,12.0,71,0.00,,,0.01,Wunderground v.1.15,2013-05-17 20:35:00,
2013-05-17 15:41:00,57.9,48.9,30.04,SE,134,8.0,8.0,72,0.00,,,0.01,Wunderground v.1.15,2013-05-17 20:41:00,
2013-05-17 15:46:00,57.7,49.1,30.03,SE,136,7.0,8.0,73,0.00,,,0.01,Wunderground v.1.15,2013-05-17 20:46:00,
2013-05-17 15:52:00,57.6,49.0,30.03,SE,136,7.0,8.0,73,0.00,,,0.01,Wunderground v.1.15,2013-05-17 20:52:00,
2013-05-17 15:57:00,57.8,49.2,30.03,East,94,6.0,13.0,73,0.00,,,0.01,Wunderground v.1.15,2013-05-17 20:57:00,
2013-05-17 16:03:00,57.8,49.9,30.03,SE,138,6.0,8.0,75,0.00,,,0.01,Wunderground v.1.15,2013-05-17 21:03:00,
2013-05-17 16:09:00,57.5,49.3,30.03,SE,131,8.0,16.0,74,0.00,,,0.01,Wunderground v.1.15,2013-05-17 21:09:00,
2013-05-17 16:15:00,57.1,49.6,30.03,ESE,116,9.0,9.0,76,0.00,,,0.01,Wunderground v.1.15,2013-05-17 21:15:00,
2013-05-17 16:21:00,56.9,49.8,30.03,SE,126,7.0,7.0,77,0.00,,,0.01,Wunderground v.1.15,2013-05-17 21:21:00,
2013-05-17 16:26:00,56.6,50.2,30.03,East,101,8.0,13.0,79,0.00,,,0.01,Wunderground v.1.15,2013-05-17 21:26:00,
2013-05-17 16:32:00,56.3,50.2,30.03,ESE,108,10.0,12.0,80,0.00,,,0.01,Wunderground v.1.15,2013-05-17 21:32:00,
2013-05-17 16:37:00,56.0,50.3,30.03,ESE,123,9.0,12.0,81,0.00,,,0.01,Wunderground v.1.15,2013-05-17 21:37:00,
2013-05-17 16:43:00,55.7,50.6,30.03,East,98,7.0,8.0,83,0.00,,,0.02,Wunderground v.1.15,2013-05-17 21:43:00,
2013-05-17 16:49:00,55.5,51.1,30.03,SE,132,5.0,8.0,85,0.00,,,0.02,Wunderground v.1.15,2013-05-17 21:49:00,
2013-05-17 16:55:00,55.4,51.3,30.03,ESE,113,5.0,5.0,86,0.00,,,0.02,Wunderground v.1.15,2013-05-17 21:55:00,
2013-05-17 17:00:00,55.3,51.2,30.03,SE,124,6.0,7.0,86,0.00,,,0.02,Wunderground v.1.15,2013-05-17 22:00:00,
2013-05-17 17:06:00,55.2,51.1,30.03,SE,138,5.0,8.0,86,0.00,,,0.02,Wunderground v.1.15,2013-05-17 22:06:00,
2013-05-17 17:12:00,55.2,51.4,30.03,SE,126,5.0,8.0,87,0.00,,,0.02,Wunderground v.1.15,2013-05-17 22:12:00,
2013-05-17 17:18:00,55.0,51.2,30.03,ESE,116,6.0,8.0,87,0.00,,,0.02,Wunderground v.1.15,2013-05-17 22:18:00,
2013-05-17 17:23:00,54.8,50.7,30.04,East,99,6.0,7.0,86,0.00,,,0.02,Wunderground v.1.15,2013-05-17 22:23:00,
2013-05-17 17:29:00,54.6,50.8,30.04,SE,132,6.0,7.0,87,0.00,,,0.02,Wunderground v.1.15,2013-05-17 22:29:00,
2013-05-17 17:34:00,54.5,51.0,30.04,ESE,119,6.0,6.0,88,0.00,,,0.03,Wunderground v.1.15,2013-05-17 22:34:00,
2013-05-17 17:40:00,54.2,51.0,30.04,SSE,147,5.0,6.0,89,0.00,,,0.03,Wunderground v.1.15,2013-05-17 22:40:00,
2013-05-17 17:46:00,54.0,50.8,30.04,SE,136,4.0,7.0,89,0.00,,,0.03,Wunderground v.1.15,2013-05-17 22:46:00,
2013-05-17 17:52:00,53.9,51.0,30.04,ESE,121,5.0,5.0,90,0.00,,,0.03,Wunderground v.1.15,2013-05-17 22:52:00,
2013-05-17 17:58:00,53.7,51.1,30.04,ESE,114,5.0,6.0,91,0.00,,,0.03,Wunderground v.1.15,2013-05-17 22:58:00,
2013-05-17 18:03:00,53.6,51.0,30.04,East,101,5.0,5.0,91,0.00,,,0.04,Wunderground v.1.15,2013-05-17 23:03:00,
2013-05-17 18:09:00,53.5,50.9,30.04,ESE,112,6.0,7.0,91,0.00,,,0.04,Wunderground v.1.15,2013-05-17 23:09:00,
2013-05-17 18:15:00,53.3,50.7,30.04,ESE,119,6.0,9.0,91,0.04,,,0.05,Wunderground v.1.15,2013-05-17 23:15:00,
2013-05-17 18:21:00,53.2,50.6,30.04,East,100,5.0,5.0,91,0.04,,,0.05,Wunderground v.1.15,2013-05-17 23:21:00,
2013-05-17 18:26:00,53.2,50.9,30.04,East,86,5.0,8.0,92,0.04,,,0.05,Wunderground v.1.15,2013-05-17 23:26:00,
2013-05-17 18:32:00,53.2,50.9,30.03,East,84,6.0,7.0,92,0.00,,,0.05,Wunderground v.1.15,2013-05-17 23:32:00,
2013-05-17 18:37:00,53.2,50.9,30.03,ESE,111,6.0,9.0,92,0.00,,,0.05,Wunderground v.1.15,2013-05-17 23:37:00,
2013-05-17 18:43:00,53.1,50.5,30.03,East,97,8.0,13.0,91,0.00,,,0.05,Wunderground v.1.15,2013-05-17 23:43:00,
2013-05-17 18:49:00,53.0,50.4,30.03,ESE,116,8.0,13.0,91,0.00,,,0.05,Wunderground v.1.15,2013-05-17 23:49:00,
2013-05-17 18:55:00,53.0,50.7,30.03,East,87,6.0,8.0,92,0.00,,,0.06,Wunderground v.1.15,2013-05-17 23:55:00,
2013-05-17 19:01:00,53.1,50.8,30.03,ENE,76,7.0,9.0,92,0.00,,,0.06,Wunderground v.1.15,2013-05-18 00:01:00,
2013-05-17 19:07:00,53.1,50.8,30.03,ESE,117,7.0,9.0,92,0.00,,,0.06,Wunderground v.1.15,2013-05-18 00:07:00,
2013-05-17 19:12:00,53.1,50.8,30.03,ESE,123,6.0,9.0,92,0.00,,,0.06,Wunderground v.1.15,2013-05-18 00:12:00,
2013-05-17 19:18:00,53.0,50.4,30.03,East,96,7.0,12.0,91,0.00,,,0.06,Wunderground v.1.15,2013-05-18 00:18:00,
2013-05-17 19:23:00,53.0,50.4,30.03,East,92,7.0,7.0,91,0.00,,,0.06,Wunderground v.1.15,2013-05-18 00:23:00,
2013-05-17 19:29:00,52.9,50.3,30.04,SE,135,5.0,7.0,91,0.00,,,0.06,Wunderground v.1.15,2013-05-18 00:29:00,
2013-05-17 19:35:00,52.8,50.2,30.04,ESE,121,5.0,9.0,91,0.00,,,0.06,Wunderground v.1.15,2013-05-18 00:35:00,
2013-05-17 19:41:00,52.8,50.2,30.04,ESE,110,5.0,9.0,91,0.00,,,0.06,Wunderground v.1.15,2013-05-18 00:41:00,
2013-05-17 19:47:00,52.8,50.5,30.04,ESE,113,5.0,9.0,92,0.00,,,0.06,Wunderground v.1.15,2013-05-18 00:47:00,
2013-05-17 19:52:00,52.7,50.4,30.04,ESE,113,5.0,5.0,92,0.00,,,0.06,Wunderground v.1.15,2013-05-18 00:52:00,
2013-05-17 19:58:00,52.7,50.1,30.04,ESE,104,5.0,7.0,91,0.00,,,0.06,Wunderground v.1.15,2013-05-18 00:58:00,
2013-05-17 20:04:00,52.7,50.1,30.04,ESE,116,6.0,9.0,91,0.00,,,0.06,Wunderground v.1.15,2013-05-18 01:04:00,
2013-05-17 20:10:00,52.7,50.4,30.04,East,94,5.0,9.0,92,0.00,,,0.06,Wunderground v.1.15,2013-05-18 01:10:00,
2013-05-17 20:15:00,52.7,50.4,30.04,East,93,5.0,7.0,92,0.00,,,0.06,Wunderground v.1.15,2013-05-18 01:15:00,
2013-05-17 20:21:00,52.7,50.4,30.04,East,89,5.0,5.0,92,0.00,,,0.06,Wunderground v.1.15,2013-05-18 01:21:00,
2013-05-17 20:27:00,52.7,50.4,30.04,ENE,74,4.0,5.0,92,0.00,,,0.06,Wunderground v.1.15,2013-05-18 01:27:00,
2013-05-17 20:32:00,52.7,50.4,30.04,ENE,77,4.0,5.0,92,0.00,,,0.06,Wunderground v.1.15,2013-05-18 01:32:00,
2013-05-17 20:38:00,52.7,50.4,30.04,ENE,69,5.0,7.0,92,0.00,,,0.06,Wunderground v.1.15,2013-05-18 01:38:00,
2013-05-17 20:44:00,52.7,50.4,30.04,ESE,103,6.0,7.0,92,0.00,,,0.06,Wunderground v.1.15,2013-05-18 01:44:00,
2013-05-17 20:50:00,52.6,50.3,30.04,East,98,7.0,8.0,92,0.00,,,0.06,Wunderground v.1.15,2013-05-18 01:50:00,
2013-05-17 20:56:00,52.6,50.3,30.04,ESE,111,7.0,10.0,92,0.00,,,0.06,Wunderground v.1.15,2013-05-18 01:56:00,
2013-05-17 21:01:00,52.5,49.9,30.05,ESE,106,7.0,7.0,91,0.00,,,0.06,Wunderground v.1.15,2013-05-18 02:01:00,
2013-05-17 21:06:00,52.5,50.2,30.05,East,98,6.0,7.0,92,0.00,,,0.06,Wunderground v.1.15,2013-05-18 02:06:00,
2013-05-17 21:12:00,52.5,50.2,30.05,East,86,5.0,6.0,92,0.00,,,0.06,Wunderground v.1.15,2013-05-18 02:12:00,
2013-05-17 21:18:00,52.5,50.2,30.05,ESE,102,6.0,8.0,92,0.00,,,0.06,Wunderground v.1.15,2013-05-18 02:18:00,
2013-05-17 21:23:00,52.5,49.9,30.05,ESE,103,7.0,8.0,91,0.00,,,0.06,Wunderground v.1.15,2013-05-18 02:23:00,
2013-05-17 21:28:00,52.5,49.9,30.05,ESE,113,6.0,10.0,91,0.00,,,0.06,Wunderground v.1.15,2013-05-18 02:28:00,
2013-05-17 21:34:00,52.5,49.9,30.05,ESE,109,6.0,7.0,91,0.00,,,0.06,Wunderground v.1.15,2013-05-18 02:34:00,
2013-05-17 21:40:00,52.4,49.8,30.06,SE,128,6.0,8.0,91,0.00,,,0.06,Wunderground v.1.15,2013-05-18 02:40:00,
2013-05-17 21:46:00,52.5,49.9,30.06,SE,124,6.0,7.0,91,0.00,,,0.06,Wunderground v.1.15,2013-05-18 02:46:00,
2013-05-17 21:52:00,52.5,49.9,30.06,East,95,6.0,7.0,91,0.00,,,0.06,Wunderground v.1.15,2013-05-18 02:52:00,
2013-05-17 21:57:00,52.4,49.8,30.06,ESE,113,6.0,7.0,91,0.00,,,0.06,Wunderground v.1.15,2013-05-18 02:57:00,
2013-05-17 22:03:00,52.4,49.8,30.06,ESE,120,6.0,10.0,91,0.00,,,0.06,Wunderground v.1.15,2013-05-18 03:03:00,
2013-05-17 22:08:00,52.4,49.8,30.05,ENE,67,7.0,10.0,91,0.00,,,0.06,Wunderground v.1.15,2013-05-18 03:08:00,
2013-05-17 22:14:00,52.4,49.8,30.05,ESE,113,8.0,12.0,91,0.00,,,0.06,Wunderground v.1.15,2013-05-18 03:14:00,
2013-05-17 22:20:00,52.4,49.8,30.05,ESE,115,8.0,12.0,91,0.00,,,0.06,Wunderground v.1.15,2013-05-18 03:20:00,
2013-05-17 22:26:00,52.4,49.8,30.05,SE,130,7.0,10.0,91,0.00,,,0.06,Wunderground v.1.15,2013-05-18 03:26:00,
2013-05-17 22:32:00,52.3,49.5,30.05,ESE,102,6.0,8.0,90,0.00,,,0.06,Wunderground v.1.15,2013-05-18 03:32:00,
2013-05-17 22:37:00,52.3,49.8,30.05,ESE,109,7.0,11.0,91,0.00,,,0.06,Wunderground v.1.15,2013-05-18 03:37:00,
2013-05-17 22:43:00,52.3,49.5,30.05,SE,125,9.0,9.0,90,0.00,,,0.06,Wunderground v.1.15,2013-05-18 03:43:00,
2013-05-17 22:49:00,52.3,49.8,30.05,ESE,113,8.0,13.0,91,0.00,,,0.06,Wunderground v.1.15,2013-05-18 03:49:00,
2013-05-17 22:55:00,52.3,49.8,30.05,ESE,102,6.0,8.0,91,0.00,,,0.06,Wunderground v.1.15,2013-05-18 03:55:00,
2013-05-17 23:01:00,52.3,49.8,30.05,ESE,111,6.0,11.0,91,0.00,,,0.06,Wunderground v.1.15,2013-05-18 04:01:00,
2013-05-17 23:02:00,52.3,49.8,30.05,ESE,107,6.0,11.0,91,0.00,,,0.06,Wunderground v.1.15,2013-05-18 04:02:00,
2013-05-17 23:04:00,52.3,49.8,30.05,ENE,57,6.0,11.0,91,0.00,,,0.06,Wunderground v.1.15,2013-05-18 04:04:00,
2013-05-17 23:05:00,52.3,49.8,30.05,SE,128,6.0,11.0,91,0.00,,,0.06,Wunderground v.1.15,2013-05-18 04:05:00,
2013-05-17 23:07:00,52.3,49.8,30.06,SE,126,5.0,11.0,91,0.00,,,0.06,Wunderground v.1.15,2013-05-18 04:07:00,
2013-05-17 23:13:00,52.3,49.5,30.06,East,84,5.0,8.0,90,0.00,,,0.06,Wunderground v.1.15,2013-05-18 04:13:00,
2013-05-17 23:19:00,52.3,49.5,30.06,ESE,112,5.0,9.0,90,0.00,,,0.06,Wunderground v.1.15,2013-05-18 04:19:00,
2013-05-17 23:24:00,52.3,49.5,30.06,ESE,109,4.0,4.0,90,0.00,,,0.06,Wunderground v.1.15,2013-05-18 04:24:00,
2013-05-17 23:30:00,52.3,49.5,30.05,East,92,4.0,5.0,90,0.00,,,0.06,Wunderground v.1.15,2013-05-18 04:30:00,
2013-05-17 23:35:00,52.3,49.5,30.05,East,97,6.0,9.0,90,0.00,,,0.06,Wunderground v.1.15,2013-05-18 04:35:00,
2013-05-17 23:41:00,52.2,49.4,30.05,ESE,112,7.0,10.0,90,0.00,,,0.06,Wunderground v.1.15,2013-05-18 04:41:00,
2013-05-17 23:47:00,52.3,49.5,30.05,East,80,7.0,10.0,90,0.00,,,0.06,Wunderground v.1.15,2013-05-18 04:47:00,
2013-05-17 23:53:00,52.2,49.4,30.05,East,80,6.0,7.0,90,0.00,,,0.06,Wunderground v.1.15,2013-05-18 04:53:00,
2013-05-17 23:59:00,52.2,49.4,30.05,ENE,74,5.0,7.0,90,0.00,,,0.06,Wunderground v.1.15,2013-05-18 04:59:00,